logo Eve Who10,720,532 Characters
749,994 Corporations
7,863 Alliances

Home Pilots Corporations Alliances Factions Comments FAQ 

corp logo
Name:BINFORD
Ticker:[FORD]
CEO:Tim Taylor
Members:67
Avg. Sec.:1.9
7 Day Delta:0
Activity:Possibly Inactive
LinkszKillboard
Description: 
Wir sind eine deutschsprachige Ausbildungscorp mit Industrial Core in der Allianz The Volition Cult [VOLT} und seit 2003 in nahezu allen branchenüblichen Feldern tätig.
"Alles kann - Nichts muss"
Wir wissen: die besten Piloten findet man nicht, die baut man selbst.
Mit nur wenigen einfachen Corp-Regeln unterstützen wir einander dabei, EVE aus der Heimwerkerperspektive kennenzulernen.
Am Standort Querious (Nullsec) stehen folgende Bereiche offen:
- Mining
- PvE (Blood Raiders)
- Forschung und Produktion
- Handel
- Transport
- PvP
- Exploration
Wir bieten:
- eine umfangreiche Aus- und Weiterbildung
- Nullsec-Mining mit entsprechendem Support
- corpgestützte Produktion und Forschung
- deutschsprachiges PvP
- TS3, Discord und Google Plus / Drive
Wir erwarten:
- FULL API-Key
- Google+ Account mit Evechar-Name
Interessenten melden sich bitte über unser Ad >> BINFORD - Staffel 13: A New Hope << bei einem unserer Recruiter oder besuchen uns direkt im Channel "Binford".
Last Updated: 2017-11-17 13:54:02 | 338825972

comments powered by Disqus
 Name JoinedLeft
char portraitTim Taylorcorp logo2003/07/27 03:262003/07/27 03:25
char portraitTim Taylorcorp logo2003/07/27 03:26
char portraitDarqicorp logo2003/08/08 04:542003/11/03 19:45
char portraitAshusinacorp logo2003/08/13 09:162004/09/16 20:09
char portraitStahlVipercorp logo2003/08/18 07:222003/10/13 13:10
char portraitNomispancocorp logo2003/08/21 05:522003/09/18 17:32
char portraitBloodwolfcorp logo2003/09/02 09:472005/10/20 20:03
char portraitAvery Longnamecorp logo2003/09/15 04:062003/09/18 01:33
char portraitTatikkcorp logo2003/10/02 03:282004/09/18 21:35
char portraitDiscmancorp logo2003/10/03 07:112003/10/12 14:25
char portraitThorus Adamacorp logo2004/03/08 18:472004/05/19 13:45
char portraitMitchaycorp logo2004/03/09 20:492004/03/29 22:46
char portraitDarth Seekercorp logo2004/03/10 09:132004/10/05 00:19
char portraitCold Logiccorp logo2004/03/11 22:472004/04/10 02:33
char portraitZachariascorp logo2004/03/15 06:112004/03/28 02:29
char portraitAmarr Citizen 940459529corp logo2004/03/26 09:402004/09/16 20:10
char portraitHaegarcorp logo2004/04/01 19:132004/10/10 00:58
char portraitRollicorp logo2004/04/03 00:192006/07/15 04:56
char portraitKebole Asanecorp logo2004/04/05 03:572004/10/05 05:18
char portraitAsiliancorp logo2004/04/06 06:132004/09/16 20:08
char portraitMinmatar Citizen 975433362corp logo2004/04/08 02:012004/09/16 20:09
char portraitBadhorcorp logo2004/04/08 10:242004/09/16 20:08
char portraitCold Logiccorp logo2004/04/10 02:562004/05/16 20:42
char portraitRodrigo Talaveracorp logo2004/04/11 03:152004/04/12 00:19
char portraitSchnischicorp logo2004/04/12 09:102004/09/05 12:10
char portraitLyceannecorp logo2004/04/13 23:502005/02/05 22:06
char portraitLittlebirdcorp logo2004/04/14 14:142004/05/28 19:59
char portraitTheoluscorp logo2004/04/24 10:532004/09/16 23:37
char portraitMaster Blastercorp logo2004/04/26 20:392006/08/15 02:02
char portraitAmarr Citizen 1038828567corp logo2004/04/26 20:442006/05/08 16:39
char portraitBlixxcorp logo2004/05/08 19:312004/06/19 10:44
char portraitcarrockcorp logo2004/05/17 07:412004/08/09 06:07
char portraitTango24corp logo2004/05/22 21:292004/11/10 03:44
char portraitThurisarcorp logo2004/06/08 12:542004/09/16 20:13
char portraitStahlVipercorp logo2004/06/14 06:532006/01/12 16:02
char portraitThraxiuscorp logo2004/07/31 17:372004/09/16 20:11
char portraitKitharacorp logo2004/08/17 18:432004/10/06 21:02
char portraitcarrockcorp logo2004/08/27 09:062004/11/19 00:07
char portraitBronx Peroncorp logo2004/09/03 04:132004/09/29 22:20
char portraitMayana Laikiscorp logo2004/09/03 16:002004/10/01 19:00
char portraitExtraterracorp logo2004/09/07 22:312004/10/11 06:10
char portraitCold Logiccorp logo2004/09/18 01:412004/10/11 22:04
char portraitThorus Adamacorp logo2004/10/25 09:332006/05/02 20:52
char portraitNosaicorp logo2004/11/15 20:242006/04/08 18:04
char portraitKrodoxcorp logo2004/11/15 21:062005/05/22 09:08
char portraitPleassurecorp logo2004/11/19 21:422004/12/05 21:59
char portraitMinuroscorp logo2004/11/30 19:142005/05/18 16:27
char portraitQuantexcorp logo2004/12/04 00:332005/08/08 02:09
char portraitBrignolicorp logo2004/12/06 19:532005/05/19 15:28
char portraitNuggetscorp logo2004/12/21 08:192006/08/15 03:19
char portraitSF Ravencorp logo2004/12/28 07:532005/06/30 14:14
char portraitBadhorcorp logo2004/12/31 13:192005/10/05 09:56
char portraitKorelliuscorp logo2005/01/05 21:192005/04/25 17:34
char portraitMalcom Micawbercorp logo2005/01/06 23:022005/05/02 12:14
char portraitXxSandmaNxXcorp logo2005/01/09 01:352005/10/06 16:39
char portraitDark Mooncorp logo2005/01/17 15:292005/03/19 14:51
char portraitREVENGE ANGELcorp logo2005/01/30 13:232005/03/13 01:05
char portraitTer Roshakcorp logo2005/02/12 16:382006/06/12 23:48
char portraitNightlifecorp logo2005/02/14 14:152006/08/04 04:32
char portraitMatharcorp logo2005/02/17 09:062006/06/29 23:47

Page: 1 2 ... 7 ... 13 14
Current Members Leave History

Any pilots, corporations, or alliances that relate to actual people or entities are purely coincidental.
9q/32ms Disclaimer A / C Brought to you by: Squizz Caphinator Forum Thread
EVE Online and the EVE logo are the registered trademarks of CCP hf. All rights are reserved worldwide. All other trademarks are the property of their respective owners. EVE Online, the EVE logo, EVE and all associated logos and designs are the intellectual property of CCP hf. All artwork, screenshots, characters, vehicles, storylines, world facts or other recognizable features of the intellectual property relating to these trademarks are likewise the intellectual property of CCP hf. CCP hf. has granted permission to evewho.com to use EVE Online and all associated logos and designs for promotional and information purposes on its website but does not endorse, and is not in any way affiliated with, evewho.com. CCP is in no way responsible for the content on or functioning of this website, nor can it be liable for any damage arising from the use of this website.